Regional Weather Roundup
Issued by NWS

Home | Current Version | Previous Version | Text Only | Print | Product List | Glossary On
Versions: 1 2 3 4 5 6 7 8 9 10 11 12 13 14 15 16 17 18 19 20 21 22 23 24 25 26 27 28 29 30 31 32 33 34 35 36 37 38 39 40 41 42 43 44 45 46 47 48 49 50
000
ASUS43 KMKX 210221
RWRWI

WISCONSIN REGIONAL WEATHER ROUNDUP
NATIONAL WEATHER SERVICE MILWAUKEE/SULLIVAN WI
900 PM CDT SUN APR 20 2014

NOTE: "FAIR" INDICATES FEW OR NO CLOUDS BELOW 12,000 FEET WITH NO
SIGNIFICANT WEATHER AND/OR OBSTRUCTIONS TO VISIBILITY.

WIZ001-002-006>008-014>016-023>028-210300-
NORTHWEST WISCONSIN

CITY           SKY/WX    TMP DP  RH WIND       PRES   REMARKS
SUPERIOR ARPT  CLEAR     40  33  76 CALM      29.98S
ASHLAND        CLEAR     41  36  82 N3        30.02R
HAYWARD        CLEAR     51  32  48 NE7       30.00R
SIREN          CLEAR     52  34  51 CALM      29.98R
RICE LAKE      CLEAR     61  48  61 SE5       29.99R
LADYSMITH      CLEAR     58  52  79 E5        30.00S
EAU CLAIRE     MOCLDY    60  54  80 S3        29.97R
MENOMONIE      CLEAR     58  52  81 SE3       29.98R
NEW RICHMOND   CLEAR     63  51  65 S3        29.98R
OSCEOLA        CLEAR     56  37  47 E3        29.99R
$$

WIZ003>005-009-010-017-018-210300-
NORTH CENTRAL WISCONSIN

CITY           SKY/WX    TMP DP  RH WIND       PRES   REMARKS
WOODRUFF       CLOUDY    52  45  76 CALM      30.03R
RHINELANDER    PTCLDY    50  48  93 CALM      30.02R
EAGLE RIVER    PTCLDY    52  47  83 CALM      30.02R
LAND O LAKES   CLEAR     45  34  66 CALM      30.04R
PHILLIPS       CLEAR     53  49  87 CALM      30.01R
TOMAHAWK       MOCLDY    48  46  93 CALM      30.01S FOG
MEDFORD        CLOUDY    54  53  95 SE3       30.01R
MERRILL        CLOUDY    52  51  95 CALM      30.01R
$$

WIZ029-030-035-036-043>047-210300-
CENTRAL WISCONSIN

CITY           SKY/WX    TMP DP  RH WIND       PRES   REMARKS
WAUSAU         CLOUDY    57  53  86 SE3       29.99S
MOSINEE        CLOUDY    55  54  94 CALM      30.02R
MARSHFIELD     CLOUDY    56  53  90 CALM      30.00R
STEVENS POINT  CLOUDY    53  51  92 CALM      30.01S
WAUPACA        MOCLDY    57  54  88 CALM      30.01F
WAUTOMA        MOCLDY    56  55  96 CALM      30.02R FOG
WISC RAPIDS    MOCLDY    53  51  93 CALM      30.02R
CAMP DOUGLAS   FOG       52  52 100 NE3       29.99S VSB 1/2
$$

WIZ011>013-019>022-031-037>040-048>050-210300-
NORTHEAST WISCONSIN

CITY           SKY/WX    TMP DP  RH WIND       PRES   REMARKS
ANTIGO         CLOUDY    52  50  93 CALM      30.02S
STURGEON BAY   CLOUDY    50  43  76 S7        30.03F
GREEN BAY      CLOUDY    53  52  96 CALM      30.02S FOG
MANITOWOC      CLOUDY    44  39  82 E3        30.03S
APPLETON       CLOUDY    54  52  94 N5        30.02S
CLINTONVILLE   CLOUDY    54  52  94 SE5       30.01S
OSHKOSH        CLOUDY    54  48  80 CALM      30.01R
$$

WIZ032>034-041-042-053>061-210300-
SOUTHWEST WISCONSIN

CITY           SKY/WX    TMP DP  RH WIND       PRES   REMARKS
LA CROSSE      CLOUDY    56  53  90 N5        29.97R FOG
SPARTA         MOCLDY    56  54  95 CALM      29.99S
VIROQUA        MOCLDY    57  57 100 E9        29.97F
BOSCOBEL       CLOUDY    58  55  90 CALM      29.95F FOG
PRAIRIE DU CHI MOCLDY    57  56  95 E6        29.94F FOG
PLATTEVILLE    FAIR      68  45  44 S10       29.98S
$$

WIZ056-057-062-063-064-067-068-210300-
SOUTH CENTRAL WISCONSIN

CITY           SKY/WX    TMP DP  RH WIND       PRES   REMARKS
BARABOO/DELLS  CLOUDY    56  53  89 CALM      30.00R
LONE ROCK      LGT RAIN  60  55  83 E10       29.97R
WATERTOWN      CLOUDY    61  49  65 E3        29.98S
MADISON        CLOUDY    63  50  62 CALM      29.99R
MIDDLETON      CLOUDY    63  50  63 S7        29.98R
MONROE         MOCLDY    68  44  43 S7        29.99R
JANESVILLE     MOCLDY    70  37  30 S7        29.98F
$$

WIZ051-052-058>065-066-070>072-210300-
SOUTHEAST WISCONSIN

CITY           SKY/WX    TMP DP  RH WIND       PRES   REMARKS
MILWAUKEE      MOCLDY    63  38  39 S9        30.01F
WAUKESHA       PTCLDY    63  41  45 SE9       30.01F
MILWAUKEE/TIMM CLEAR     64  36  34 S9        30.01F
RACINE         MOCLDY    60  37  42 S15       30.03F
BURLINGTON     MOCLDY    60  42  51 SW3       30.01S
KENOSHA        MOCLDY    59  40  49 S9        30.02F
FOND DU LAC    CLOUDY    58  48  69 VRB3      30.00S
SHEBOYGAN      CLOUDY    52  39  61 SE5       30.02S
WEST BEND      CLOUDY    55  41  58 CALM      30.01R
JUNEAU         CLOUDY    59  44  56 NE5       30.00S
$$

LSZ147-162-210300-
LAKE SUPERIOR

STATION/POSITION TIME  TEMP    WIND        PRES    WAVE
                       AIR SEA DIR/SP/G            HT/PER
                 (UTC) (F)     (DEG/KT/KT) (MB)    (FT/S)
DEVILS ISLAND    0200   58     160/  9/ 10 1015.9F
PORT WING        0140   36      CALM  /  1 1015.6S
SAXON HARBOR     0100             CALM     1016.3R
$$

LMZ867-665-643>646-210300-
LAKE MICHIGAN

STATION/POSITION TIME  TEMP    WIND        PRES    WAVE
                       AIR SEA DIR/SP/G            HT/PER
                 (UTC) (F)     (DEG/KT/KT) (MB)    (FT/S)
NORTHPORT PIER   0100   44     140/  5/  7 1016.6F
SISTER BAY       0139   47     180/  8/  9   N/A
KEWAUNEE LAKESHO 0100   40     160/  5/  5 1017.8F
SHEBOYGAN LAKESH 0200   51     110/  8/  9 1017.0F
PORT WASHINGTON  0100   49     180/  5/  6 1016.9F
MILWAUKEE LAKESH 0200   52     140/  3/  4   N/A
KENOSHA   LAKESH 0200   53     170/ 17/ 20   N/A
$$

TC  - TEMPERATURE IN CELSIUS
VSB - VISIBILITY IN STATUTE MILES
WCI - WIND CHILL INDEX
HX  - HEAT INDEX




USA.gov is the U.S. government's official web portal to all federal, state and local government web resources and services.